Weather History for Sussex, NJ

Change the Weather History Date:

Wednesday, January 2, 2013

  Actual Average Record
Temperature  
Mean Temperature 20 °F -  
Max Temperature 30 °F 35 °F 60 °F (1979)
Min Temperature 10 °F 16 °F -10 °F (1968)
Degree Days  
Heating Degree Days 45    
Moisture  
Dew Point 10 °F    
Average Humidity 61    
Maximum Humidity 81    
Minimum Humidity 43    
Precipitation  
Precipitation 0.00 in - - ()
Sea Level Pressure  
Sea Level Pressure 30.06 in    
Wind  
Wind Speed 2 mph (West)    
Max Wind Speed 9 mph    
Max Gust Speed 18 mph    
Visibility 10 miles    
Events      
Averages and records for this station are not official NWS values.
T = Trace of Precipitation, MM = Missing Value Source: NWS Daily Summary

Daily Weather History Graph

Daily Weather History Graph

Search for Another Location

Airport:

Trip Planner

Search our weather history database for the weather conditions in past years. The results will help you decide how hot, cold, wet, or windy it might be!

Date:

Astronomy

Jan. 02, 2013 Rise Set
Actual Time 7:24 AM EST 4:41 PM EST
Civil Twilight 6:53 AM EST 5:12 PM EST
Nautical Twilight 6:18 AM EST 5:47 PM EST
Astronomical Twilight 5:45 AM EST 6:20 PM EST
Moon 10:14 PM EST (1/2) 10:01 AM EST (1/2)
Length of Visible Light 10h 19m
Length of Day
9h 17m
Waning Gibbous, 75% of the Moon is Illuminated
Jan 2
Waning Gibbous
Jan 4
Last Quarter
Jan 11
New
Jan 18
First Quarter
Jan 26
Full

Hourly Weather History & Observations

Time (EST) Temp. Windchill Dew Point Humidity Pressure Visibility Wind Dir Wind Speed Gust Speed Precip Events Conditions
12:53 AM 21.0 °F - 10.0 °F 63% 30.01 in 10.0 mi Calm Calm - N/A   Clear
1:53 AM 19.9 °F - 8.1 °F 60% 30.02 in 10.0 mi Calm Calm - N/A   Clear
2:53 AM 19.0 °F - 8.1 °F 62% 30.02 in 10.0 mi Calm Calm - N/A   Clear
3:53 AM 17.1 °F - 8.1 °F 68% 30.02 in 10.0 mi Calm Calm - N/A   Clear
4:53 AM 14.0 °F - 7.0 °F 74% 30.02 in 10.0 mi Calm Calm - N/A   Clear
5:53 AM 14.0 °F - 7.0 °F 74% 30.01 in 10.0 mi Calm Calm - N/A   Clear
6:53 AM 10.0 °F - 5.0 °F 80% 30.01 in 10.0 mi Calm Calm - N/A   Clear
7:53 AM 10.9 °F - 6.1 °F 81% 30.03 in 6.0 mi Calm Calm - N/A   Haze
8:53 AM 12.9 °F - 7.0 °F 77% 30.05 in 10.0 mi Calm Calm - N/A   Clear
10:53 AM 25.0 °F 15.5 °F 10.9 °F 55% 30.06 in 10.0 mi West 9.2 mph - N/A   Partly Cloudy
11:53 AM 28.0 °F 19.3 °F 10.9 °F 49% 30.03 in 10.0 mi West 9.2 mph 18.4 mph N/A   Clear
12:53 PM 30.0 °F 23.2 °F 10.0 °F 43% 30.01 in 10.0 mi Variable 6.9 mph - N/A   Clear
1:53 PM 30.0 °F 23.2 °F 10.9 °F 45% 30.02 in 10.0 mi Variable 6.9 mph 16.1 mph N/A   Clear
2:53 PM 30.0 °F 23.2 °F 12.0 °F 47% 30.05 in 10.0 mi WNW 6.9 mph - N/A   Clear
3:53 PM 28.9 °F 21.9 °F 12.0 °F 49% 30.06 in 10.0 mi Variable 6.9 mph - N/A   Clear
4:53 PM 28.9 °F 23.9 °F 12.0 °F 49% 30.08 in 10.0 mi Variable 4.6 mph - N/A   Overcast
5:53 PM 28.0 °F 20.8 °F 12.0 °F 51% 30.10 in 10.0 mi Variable 6.9 mph - N/A   Mostly Cloudy
6:53 PM 28.0 °F 22.8 °F 12.9 °F 53% 30.12 in 10.0 mi West 4.6 mph - N/A   Overcast
8:53 PM 26.1 °F - 14.0 °F 60% 30.13 in 10.0 mi Calm Calm - N/A   Clear
9:53 PM 23.0 °F - 15.1 °F 72% 30.14 in 10.0 mi Calm Calm - N/A   Mostly Cloudy
11:53 PM 21.9 °F 17.2 °F 15.1 °F 75% 30.17 in 9.0 mi SW 3.5 mph - N/A   Overcast